TITAN 3C TRANSTAGE DEB, 43515

Orbit data source: Space-Track

TITAN 3C TRANSTAGE DEB, 43515 is space debris in GEO originally from a launch on Sun, 09 Feb 1969 UTC launched from the Air Force Eastern Test Range (AFETR). Debris objects in space refer to the collection of defunct objects orbiting the Earth. Examples of debris include non-operational satellites, rocket bodies, and fragments generated from explosions, collisions, or faulty payload assembly.

Loading next visibility...
Identifier
43515, 1969-013T
Orbit
GEO
Country
Flag of USUS
Related business
Manufacturer
Martin Marietta
Mission
Spacecraft
Bus & Motor
Unknown
Mass
Unknown
Launch date (UTC)
1969-02-09 (58 years ago)
Launch vehicle
Unknown
Launch site
Air Force Eastern Test Range (AFETR)
Object type
Payload
Rocket body
Debris
Shape & HBR
Unknown shape, 1.1 m
Radar Cross Section
Medium (>0.1 m² and <1 m²)

Expand to show TLE details & history
Last TLE update: 2 weeks ago

TLE from 2 weeks ago
0 TITAN 3C TRANSTAGE DEB
1 43515U 69013T   26241.78575905 -.00000184  00000-0  00000-0 0  9992
2 43515   1.9912  60.0111 0329603 146.7752 216.1539  0.95443792 28927
Epoch: 2026-08-29T18:51Z
TLE epoch observation values (Epoch: 2026-08-29T18:51:29.581Z)
Latitude
-0°
Longitude
159.89661°
Altitude
38,366.515 km
Speed
2.944 km/s
True Right ascension
04h 03m 02s
True Declination
0° 00' 00"
Sunlit
Object was in daylight at epoch
Visualization orbit readout
Latitude
Unknown
Longitude
Unknown
Altitude
Unknown
Speed
Unknown
Apparent Right ascension
Unknown
Apparent Declination
Unknown
Sunlit
N/A
Visualization observer readout
Local Sidereal Time
11:15:25
Azimuth
Unknown
Elevation
Unknown
Doppler factor
Unknown
Orbital elements
Apogee altitude
38,634.109 km
Perigee altitude
35,761.555 km
Semi-major axis
43,575.969 km
Eccentricity
0.03296
Inclination
1.9912°
RAAN
60.0111°
Arg. of periapsis
146.7752°
True anomaly
213.99799°
Mean anomaly
216.1539°
Eccentric anomaly
215.06885°
Mean motion
0.2386 °/min
Orbital period
1,508.79 mins
BSTAR
0
Loading maneuver chart data...
Computing Atmospheric mass density...

Documentation

Showing up to 5 results
|